This demonstration page uses our WeatherBlox Daily Observations layout. Learn more.

Left ArrowRight Arrow

Hourly Observations for July 9, 2017

Temp ( °F °C ) Dew Point ( °F °C ) Humidity (%) Winds ( mph kmh ) Pressure ( in mb ) Visibility ( mi km ) Precip ( " mm )
12:53 am 00:53 Clear 74 23.3 62 16.7 67 67 SSE 7 11 30.01 1016 10 16 0.00 0.00
1:53 am 01:53 Clear 74 23.3 62 16.7 67 67 SSE 6 9 30.00 1016 10 16 0.00 0.00
2:53 am 02:53 Mostly Clear 73 22.8 62 16.7 69 69 S 7 11 29.99 1016 10 16 0.00 0.00
3:53 am 03:53 Mostly Cloudy 72 22.2 63 17.2 73 73 SSE 6 9 29.97 1015 10 16 0.00 0.00
4:53 am 04:53 Partly Cloudy 71 21.7 63 17.2 76 76 S 6 9 29.96 1015 10 16 0.00 0.00
5:53 am 05:53 Mostly Clear 71 21.7 64 17.8 79 79 S 9 15 29.95 1014 10 16 0.00 0.00
6:53 am 06:53 Sunny 69 20.6 64 17.8 84 84 S 9 15 29.95 1014 10 16 0.00 0.00
7:53 am 07:53 Sunny 73 22.8 64 17.8 74 74 S 8 13 29.93 1014 10 16 0.00 0.00
8:53 am 08:53 Sunny 77 25 65 18.3 66 66 SW 8 13 29.94 1014 10 16 0.00 0.00
9:53 am 09:53 Sunny 79 26.1 65 18.3 62 62 WSW 10 17 29.93 1014 10 16 0.00 0.00
10:53 am 10:53 Sunny 82 27.8 66 18.9 58 58 SSW 7 11 29.92 1013 10 16 0.00 0.00
11:53 am 11:53 Sunny 86 30 67 19.4 53 53 SW 8 13 29.91 1013 10 16 0.00 0.00
12:53 pm 12:53 Sunny 89 31.7 68 20 50 50 SSW 8 13 29.89 1012 10 16 0.00 0.00
1:53 pm 13:53 Sunny 93 33.9 65 18.3 40 40 SW 10 17 29.87 1012 10 16 0.00 0.00
2:53 pm 14:53 Sunny 94 34.4 62 16.7 35 35 SSW 12 19 29.85 1011 10 16 0.00 0.00
3:53 pm 15:53 Sunny 96 35.6 63 17.2 34 34 SW 8 13 29.84 1011 10 16 0.00 0.00
4:53 pm 16:53 Sunny 96 35.6 65 18.3 36 36 SW 8 13 29.82 1010 10 16 0.00 0.00
5:53 pm 17:53 Sunny 96 35.6 64 17.8 35 35 SSW 13 20 29.80 1009 10 16 0.00 0.00
6:53 pm 18:53 Sunny 94 34.4 65 18.3 38 38 SSW 9 15 29.78 1009 10 16 0.00 0.00
7:53 pm 19:53 Sunny 91 32.8 68 20 47 47 S 5 7 29.78 1008 10 16 0.00 0.00
8:53 pm 20:53 Sunny 88 31.1 68 20 52 52 S 6 9 29.78 1009 10 16 0.00 0.00
9:53 pm 21:53 Clear 84 28.9 67 19.4 57 57 S 7 11 29.79 1009 10 16 0.00 0.00
10:53 pm 22:53 Clear 83 28.3 63 17.2 51 51 S 10 17 29.80 1009 10 16 0.00 0.00
11:53 pm 23:53 Clear 82 27.8 63 17.2 53 53 SSW 12 19 29.79 1009 10 16 0.00 0.00

Powered by AerisWeather